EW5923 Weather Reports


Display with metric or nautical units.
time (UTC)temp
F
wind
direction
speed
MPH
gust
MPH
rain 1hr
in
rain 24hr
in
rain mn
in
humidity
%
barometer
mb
20260504100121 73 358 1.0 4.0 0.00 0.00 0.00 42 1009.4
20260504090121 72 360 0.0 0.0 0.00 0.00 0.00 42 1008.6
20260504081121 75 338 3.0 6.0 0.00 0.00 0.00 38 1008.8
20260504080142 76 358 5.0 9.0 0.00 0.00 0.00 38 1009.0
20260504070121 77 359 10.0 15.0 0.00 0.00 0.00 36 1009.2
20260504060122 78 360 9.0 13.0 0.00 0.00 0.00 30 1008.9
20260504050122 80 360 11.0 17.0 0.00 0.00 0.00 25 1009.0
20260504045121 80 359 8.0 15.0 0.00 0.00 0.00 24 1008.9
20260504044121 81 360 11.0 16.0 0.00 0.00 0.00 23 1008.8
20260504043122 81 360 10.0 16.0 0.00 0.00 0.00 23 1008.5
20260504042144 81 359 12.0 19.0 0.00 0.00 0.00 23 1008.4
20260504041142 81 360 13.0 17.0 0.00 0.00 0.00 23 1008.2
20260504040121 82 360 13.0 20.0 0.00 0.00 0.00 22 1008.1
20260504035121 82 360 14.0 21.0 0.00 0.00 0.00 22 1007.9
20260504034121 83 360 14.0 21.0 0.00 0.00 0.00 21 1007.4
20260504033122 83 359 11.0 19.0 0.00 0.00 0.00 20 1007.3
20260504032121 84 360 13.0 21.0 0.00 0.00 0.00 19 1007.1
20260504031122 84 359 13.0 19.0 0.00 0.00 0.00 19 1006.6
20260504030122 84 360 10.0 15.0 0.00 0.00 0.00 19 1006.7
20260504025122 85 360 9.0 18.0 0.00 0.00 0.00 18 1006.3
20260504024122 86 360 13.0 22.0 0.00 0.00 0.00 17 1005.9
20260504023122 86 360 12.0 21.0 0.00 0.00 0.00 17 1005.9
20260504022121 87 360 11.0 18.0 0.00 0.00 0.00 17 1005.7
20260504021121 87 359 15.0 25.0 0.00 0.00 0.00 16 1005.7
20260504020122 88 359 17.0 27.0 0.00 0.00 0.00 15 1005.1
20260504015122 89 359 15.0 24.0 0.00 0.00 0.00 15 1005.1
20260504014121 89 359 15.0 22.0 0.00 0.00 0.00 15 1005.0
20260504013121 90 360 14.0 20.0 0.00 0.00 0.00 15 1005.0
20260504012142 90 360 14.0 21.0 0.00 0.00 0.00 14 1004.9
20260504011122 91 360 13.0 21.0 0.00 0.00 0.00 14 1004.9
20260504010122 91 360 14.0 24.0 0.00 0.00 0.00 14 1004.9
20260504005122 92 359 12.0 19.0 0.00 0.00 0.00 14 1005.0
20260504004121 93 359 11.0 20.0 0.00 0.00 0.00 13 1005.0
20260504003122 93 360 16.0 25.0 0.00 0.00 0.00 13 1005.0
20260504002122 93 359 6.0 11.0 0.00 0.00 0.00 15 1004.8
20260504001121 93 0 7.0 14.0 0.00 0.00 0.00 15 1004.8
20260504000122 93 360 9.0 17.0 0.00 0.00 0.00 16 1005.0
20260503235143 92 0 7.0 13.0 0.00 0.00 0.00 15 1004.9
20260503234121 93 360 9.0 18.0 0.00 0.00 0.00 15 1005.1
20260503233122 93 2 5.0 10.0 0.00 0.00 0.00 15 1005.1
20260503232121 93 359 8.0 14.0 0.00 0.00 0.00 15 1005.4
20260503231122 93 360 8.0 17.0 0.00 0.00 0.00 15 1005.3
20260503230123 94 359 12.0 19.0 0.00 0.00 0.00 14 1005.4
20260503225143 93 357 9.0 16.0 0.00 0.00 0.00 15 1005.8
20260503224122 93 1 8.0 14.0 0.00 0.00 0.00 16 1006.2
20260503223122 93 0 7.0 14.0 0.00 0.00 0.00 15 1006.2
20260503222122 92 360 13.0 20.0 0.00 0.00 0.00 16 1006.5
20260503221122 93 360 9.0 14.0 0.00 0.00 0.00 16 1006.6
20260503220122 92 360 10.0 18.0 0.00 0.00 0.00 16 1006.8
20260503215123 92 358 7.0 15.0 0.00 0.00 0.00 16 1006.8
20260503214144 93 358 9.0 15.0 0.00 0.00 0.00 16 1006.9
20260503213122 93 359 9.0 15.0 0.00 0.00 0.00 16 1007.1
20260503212122 93 358 9.0 16.0 0.00 0.00 0.00 16 1007.5
20260503211143 92 360 10.0 19.0 0.00 0.00 0.00 16 1007.5
20260503210123 92 7 8.0 13.0 0.00 0.00 0.00 17 1007.7
20260503205122 93 358 9.0 16.0 0.00 0.00 0.00 17 1007.7
20260503204122 92 0 10.0 19.0 0.00 0.00 0.00 17 1007.8
20260503203122 92 360 12.0 23.0 0.00 0.00 0.00 17 1007.8
20260503202122 91 357 8.0 18.0 0.00 0.00 0.00 20 1007.9
20260503201122 91 360 10.0 18.0 0.00 0.00 0.00 21 1008.1
20260503200122 91 360 6.0 12.0 0.00 0.00 0.00 21 1008.2
20260503195122 92 4 8.0 14.0 0.00 0.00 0.00 20 1008.5
20260503194143 91 360 8.0 16.0 0.00 0.00 0.00 20 1008.7
20260503193122 92 7 9.0 17.0 0.00 0.00 0.00 20 1009.0
20260503192122 91 5 7.0 13.0 0.00 0.00 0.00 21 1009.1
20260503191122 90 1 9.0 16.0 0.00 0.00 0.00 21 1009.1
20260503190122 90 358 8.0 14.0 0.00 0.00 0.00 21 1009.0
20260503185122 90 5 8.0 15.0 0.00 0.00 0.00 21 1009.4
20260503184122 89 7 6.0 15.0 0.00 0.00 0.00 21 1009.6
20260503183122 89 358 9.0 16.0 0.00 0.00 0.00 19 1009.7
20260503182123 89 5 7.0 16.0 0.00 0.00 0.00 20 1009.9
20260503181122 89 5 10.0 18.0 0.00 0.00 0.00 21 1009.9
20260503180122 89 11 7.0 14.0 0.00 0.00 0.00 21 1010.0
20260503175143 88 6 9.0 12.0 0.00 0.00 0.00 22 1010.1
20260503174122 87 9 8.0 16.0 0.00 0.00 0.00 23 1010.1
20260503173122 87 19 9.0 16.0 0.00 0.00 0.00 23 1010.2
20260503172122 87 5 9.0 13.0 0.00 0.00 0.00 23 1010.3
20260503171122 87 3 10.0 17.0 0.00 0.00 0.00 24 1010.6
20260503170123 87 10 7.0 14.0 0.00 0.00 0.00 24 1010.6
20260503160122 83 5 9.0 15.0 0.00 0.00 0.00 27 1010.6
20260503150122 80 0 6.0 10.0 0.00 0.00 0.00 29 1010.5
20260503140144 78 2 7.0 10.0 0.00 0.00 0.00 31 1010.4
20260503131122 77 5 4.0 8.0 0.00 0.00 0.00 32 1010.0
20260503130122 76 3 5.0 10.0 0.00 0.00 0.00 33 1009.9
20260503120145 76 4 5.0 9.0 0.00 0.00 0.00 32 1009.3
20260503110122 79 13 6.0 11.0 0.00 0.00 0.00 29 1009.5